Weather History for LLBG - February, 2014

Change the Weather History Date:

Sunday, February 9, 2014

  Actual Average Record
Temperature  
Mean Temperature 56 °F -  
Max Temperature 71 °F 64 °F 86 °F (2009)
Min Temperature 40 °F 49 °F 35 °F (1997)
Degree Days  
Heating Degree Days 10    
Growing Degree Days 6 (Base 50)    
Moisture  
Dew Point 34 °F    
Average Humidity 46    
Maximum Humidity 70    
Minimum Humidity 14    
Precipitation  
Precipitation 0.00 in - - ()
Sea Level Pressure  
Sea Level Pressure 30.18 in    
Wind  
Wind Speed 3 mph ()    
Max Wind Speed 12 mph    
Max Gust Speed -    
Visibility 6.0 miles    
Events      
Averages and records for this station are not official NWS values.
T = Trace of Precipitation, MM = Missing Value Source: Averaged Metar Reports

Daily Weather History Graph

Daily Weather History Graph

Search for Another Location

Airport or City:

Trip Planner

Search our weather history database for the weather conditions in past years. The results will help you decide how hot, cold, wet, or windy it might be!

Date:

Astronomy

Feb. 09, 2014 Rise Set
Actual Time 6:28 AM IST 5:21 PM IST
Civil Twilight 6:03 AM IST 5:46 PM IST
Nautical Twilight 5:34 AM IST 6:15 PM IST
Astronomical Twilight 5:05 AM IST 6:44 PM IST
Moon 12:51 PM IST (2/9) 2:10 AM IST (2/9)
Length of Visible Light 11h 43m
Length of Day
10h 53m
Waxing Gibbous, 74% of the Moon is Illuminated
Feb 9
Waxing Gibbous
Feb 15
Full
Feb 22
Last Quarter
Mar 1
New
Mar 8
First Quarter

Hourly Weather History & Observations

Time (IST) Temp. Windchill Dew Point Humidity Pressure Visibility Wind Dir Wind Speed Gust Speed Precip Events Conditions
12:20 AM 46.4 °F 45.2 °F 35.6 °F 66% 30.21 in - Variable 3.5 mph - N/A   Clear
12:50 AM 46.4 °F 45.2 °F 35.6 °F 66% 30.21 in - Variable 3.5 mph - N/A   Clear
1:20 AM 44.6 °F 42.2 °F 33.8 °F 66% 30.18 in - ESE 4.6 mph - N/A   Clear
1:50 AM 44.6 °F - 33.8 °F 66% 30.21 in - Calm Calm - N/A   Clear
2:00 AM 44 °F - 34 °F 57% 30.21 in 6 mi Calm Calm - -  
2:20 AM 42.8 °F - 33.8 °F 70% 30.18 in - Variable 2.3 mph - N/A   Clear
2:50 AM 42.8 °F - 33.8 °F 70% 30.18 in - Variable 2.3 mph - N/A   Clear
3:20 AM 42.8 °F - 32.0 °F 66% 30.18 in - Variable 2.3 mph - N/A   Clear
3:50 AM 42.8 °F - 32.0 °F 66% 30.18 in - Variable 2.3 mph - N/A   Clear
4:20 AM 42.8 °F - 30.2 °F 61% 30.18 in - Variable 2.3 mph - N/A   Clear
4:50 AM 42.8 °F - 32.0 °F 66% 30.18 in - Variable 1.2 mph - N/A   Clear
5:00 AM 43 °F - 31 °F 53% 30.20 in 6 mi 1.2 mph - -  
5:20 AM 41.0 °F 39.0 °F 30.2 °F 65% 30.18 in - Variable 3.5 mph - N/A   Clear
5:50 AM 41.0 °F - 30.2 °F 65% 30.21 in - Variable 2.3 mph - N/A   Clear
6:20 AM 41.0 °F - 30.2 °F 65% 30.21 in - Variable 2.3 mph - N/A   Clear
6:50 AM 42.8 °F 40.1 °F 30.2 °F 61% 30.21 in - ESE 4.6 mph - N/A   Clear
7:20 AM 44.6 °F - 30.2 °F 57% 30.21 in - Variable 2.3 mph - N/A   Clear
7:50 AM 46.4 °F - 32.0 °F 57% 30.21 in - Variable 1.2 mph - N/A   Clear
8:00 AM 46 °F - 31 °F 45% 30.23 in 6 mi 1.2 mph - -  
8:20 AM 51.8 °F - 32.0 °F 47% 30.21 in - Variable 1.2 mph - N/A   Clear
8:50 AM 55.4 °F - 37.4 °F 51% 30.21 in - Variable 3.5 mph - N/A   Clear
9:20 AM 60.8 °F - 33.8 °F 36% 30.24 in - WNW 5.8 mph - N/A   Clear
9:50 AM 64.4 °F - 32.0 °F 30% 30.21 in - Variable 3.5 mph - N/A   Clear
10:20 AM 66.2 °F - 32.0 °F 28% 30.21 in - Variable 2.3 mph - N/A   Clear
10:50 AM 68.0 °F - 32.0 °F 26% 30.21 in - Variable 2.3 mph - N/A   Clear
11:00 AM 69 °F - 32 °F 15% 30.22 in 6 mi 2.3 mph - -  
11:20 AM 69.8 °F - 32.0 °F 25% 30.18 in - Variable 2.3 mph - N/A   Clear
11:50 AM 69.8 °F - 28.4 °F 21% 30.18 in - West 4.6 mph - N/A   Clear
12:20 PM 71.6 °F - 28.4 °F 20% 30.18 in - Variable 2.3 mph - N/A   Clear
12:50 PM 69.8 °F - 33.8 °F 27% 30.15 in - West 10.4 mph - N/A   Clear
1:20 PM 68.0 °F - 33.8 °F 28% 30.15 in - NW 11.5 mph - N/A   Clear
1:50 PM 69.8 °F - 32.0 °F 25% 30.15 in - WNW 9.2 mph - N/A   Clear
2:00 PM 70 °F - 31 °F 14% 30.16 in 6 mi WNW 9.2 mph - -  
2:20 PM 69.8 °F - 32.0 °F 25% 30.15 in - WNW 10.4 mph - N/A   Clear
2:50 PM 69.8 °F - 32.0 °F 25% 30.12 in - WNW 9.2 mph - N/A   Clear
3:20 PM 69.8 °F - 28.4 °F 21% 30.15 in - NW 11.5 mph - N/A   Clear
3:50 PM 68.0 °F - 33.8 °F 28% 30.15 in - WNW 9.2 mph - N/A   Clear
4:20 PM 68.0 °F - 32.0 °F 26% 30.15 in - NW 9.2 mph - N/A   Clear
4:50 PM 66.2 °F - 35.6 °F 32% 30.15 in - NW 9.2 mph - N/A   Clear
5:00 PM 66 °F - 35 °F 20% 30.16 in 6 mi NW 9.2 mph - -  
5:20 PM 64.4 °F - 39.2 °F 40% 30.15 in - NW 8.1 mph - N/A   Clear
5:50 PM 62.6 °F - 41.0 °F 45% 30.15 in - Variable 3.5 mph - N/A   Clear
6:20 PM 62.6 °F - 41.0 °F 45% 30.15 in - Variable 3.5 mph - N/A   Clear
6:50 PM 60.8 °F - 39.2 °F 45% 30.18 in - Variable 2.3 mph - N/A   Clear
7:20 PM 60.8 °F - 42.8 °F 52% 30.18 in - Variable 3.5 mph - N/A   Clear
7:50 PM 59.0 °F - 41.0 °F 51% 30.15 in - Variable 2.3 mph - N/A   Clear
8:00 PM 58 °F - 40 °F 39% 30.18 in 6 mi 2.3 mph - -  
8:20 PM 55.4 °F - 41.0 °F 58% 30.15 in - Calm Calm - N/A   Clear
8:50 PM 51.8 °F - 37.4 °F 58% 30.15 in - Variable 1.2 mph - N/A   Clear
9:20 PM 51.8 °F - 37.4 °F 58% 30.15 in - Variable 1.2 mph - N/A   Clear
9:50 PM 51.8 °F - 37.4 °F 58% 30.15 in - ESE 5.8 mph - N/A   Clear
10:20 PM 50.0 °F - 35.6 °F 58% 30.15 in - Variable 2.3 mph - N/A   Clear
10:50 PM 50.0 °F - 35.6 °F 58% 30.15 in - Variable 3.5 mph - N/A   Clear
11:00 PM 51 °F - 35 °F 43% 30.18 in 6 mi 3.5 mph - -  
11:20 PM 48.2 °F - 33.8 °F 58% 30.15 in - East 4.6 mph - N/A   Clear
11:50 PM 48.2 °F - 33.8 °F 58% 30.15 in - Variable 3.5 mph - N/A   Clear